Weather History for Fayetteville, NC

Change the Weather History Date:

Saturday, July 19, 2014

  Actual Average Record
Temperature  
Mean Temperature 77 °F 82 °F  
Max Temperature 87 °F 91 °F 101 °F (2002)
Min Temperature 66 °F 72 °F 61 °F (1987)
Degree Days  
Heating Degree Days 0 0  
Month to date heating degree days 0 0  
Since 1 June heating degree days 0 0  
Since 1 July heating degree days 0 0  
Cooling Degree Days 12 17  
Month to date cooling degree days 299 312  
Year to date cooling degree days 1122 992  
Since 1 June cooling degree days 756 708  
Growing Degree Days 27 (Base 50)    
Moisture  
Dew Point 61 °F    
Average Humidity 61    
Maximum Humidity 87    
Minimum Humidity 34    
Precipitation  
Precipitation T in 0.21 in 1.64 in (1968)
Month to date precipitation 1.48 3.48  
Year to date precipitation 22.62 23.50  
Sea Level Pressure  
Sea Level Pressure 30.10 in    
Wind  
Wind Speed 5 mph (NNE)    
Max Wind Speed 12 mph    
Max Gust Speed 15 mph    
Visibility 10 miles    
Events Rain    
T = Trace of Precipitation, MM = Missing Value Source: NWS Daily Summary

Daily Weather History Graph

Daily Weather History Graph

Search for Another Location

Airport:

Trip Planner

Search our weather history database for the weather conditions in past years. The results will help you decide how hot, cold, wet, or windy it might be!

Date:

Astronomy

Jul. 19, 2014 Rise Set
Actual Time 6:15 AM EDT 8:27 PM EDT
Civil Twilight 5:46 AM EDT 8:56 PM EDT
Nautical Twilight 5:11 AM EDT 9:31 PM EDT
Astronomical Twilight 4:33 AM EDT 10:09 PM EDT
Moon 12:42 AM EDT (7/19) 2:12 PM EDT (7/19)
Length of Visible Light 15h 09m
Length of Day
14h 12m
Last Quarter, 44% of the Moon is Illuminated
Jul 19
Last Quarter
Jul 26
New
Aug 3
First Quarter
Aug 10
Full
Aug 17
Last Quarter

Hourly Weather History & Observations

Time (EDT) Temp. Heat Index Dew Point Humidity Pressure Visibility Wind Dir Wind Speed Gust Speed Precip Events Conditions
12:53 AM 72.0 °F - 57.9 °F 61% 30.14 in 10.0 mi ENE 5.8 mph - N/A   Clear
1:53 AM 69.1 °F - 57.9 °F 68% 30.13 in 10.0 mi ENE 5.8 mph - N/A   Clear
2:53 AM 68.0 °F - 59.0 °F 73% 30.11 in 10.0 mi NE 4.6 mph - N/A   Clear
3:53 AM 69.1 °F - 59.0 °F 70% 30.11 in 10.0 mi North 3.5 mph - N/A   Clear
4:53 AM 68.0 °F - 60.1 °F 76% 30.11 in 10.0 mi NNE 6.9 mph - N/A   Partly Cloudy
5:53 AM 69.1 °F - 60.1 °F 73% 30.12 in 10.0 mi North 6.9 mph - N/A   Clear
6:53 AM 68.0 °F - 61.0 °F 78% 30.12 in 10.0 mi NNE 5.8 mph - N/A   Clear
7:53 AM 71.1 °F - 62.1 °F 73% 30.13 in 10.0 mi North 5.8 mph - N/A   Clear
8:53 AM 73.9 °F - 63.0 °F 68% 30.14 in 10.0 mi North 9.2 mph - N/A   Clear
9:53 AM 73.9 °F - 63.0 °F 68% 30.13 in 10.0 mi NNE 10.4 mph - N/A   Clear
10:53 AM 75.9 °F - 64.0 °F 67% 30.10 in 10.0 mi NE 8.1 mph - N/A   Clear
11:53 AM 78.1 °F - 63.0 °F 60% 30.10 in 10.0 mi NE 6.9 mph - N/A   Clear
12:53 PM 79.0 °F - 63.0 °F 58% 30.11 in 10.0 mi NE 5.8 mph - N/A   Clear
1:53 PM 82.0 °F 82.7 °F 61.0 °F 49% 30.09 in 10.0 mi North 6.9 mph - N/A   Partly Cloudy
2:53 PM 84.0 °F 84.0 °F 60.1 °F 44% 30.08 in 10.0 mi Variable 4.6 mph - N/A   Clear
3:53 PM 86.0 °F 84.9 °F 57.0 °F 37% 30.07 in 10.0 mi NE 6.9 mph - N/A   Clear
4:53 PM 84.0 °F 82.6 °F 54.0 °F 35% 30.06 in 10.0 mi Calm Calm - N/A   Clear
5:53 PM 82.9 °F 82.1 °F 55.9 °F 39% 30.06 in 10.0 mi NE 3.5 mph - N/A   Clear
6:53 PM 79.0 °F - 61.0 °F 54% 30.07 in 10.0 mi North 6.9 mph - 0.00 in Rain Light Rain
7:53 PM 73.9 °F - 62.1 °F 66% 30.06 in 10.0 mi NNE 5.8 mph - 0.00 in   Overcast
8:53 PM 75.0 °F - 64.0 °F 69% 30.07 in 10.0 mi NE 3.5 mph - N/A   Overcast
9:53 PM 73.0 °F - 63.0 °F 71% 30.07 in 10.0 mi Calm Calm - N/A   Overcast
11:53 PM 68.0 °F - 64.9 °F 90% 30.07 in 10.0 mi NNE 4.6 mph - N/A   Clear